www.pogodaiklimat.ru

Погода и климат >> Архив погоды >> Доминиканская Республика >> La Romana Int Airport


ПОГОДА в La Romana Int Airport

  • Прогноз погоды в La Romana Int Airport
  • Монитор погоды в La Romana Int Airport
  • Климат города

АРХИВ ПОГОДЫ в La Romana Int Airport

Время (UTC), дата Ветер
(напр.,м/с)
 
Видим.   Явления Облачность Т
(С)
Тd
(С)
f
(%)
Тe
(С)
Тes
(С)
Комфортность P
(гПа)
Po
(гПа)
Тmin
(С)
Tmax
(С)
R
(мм)
R24
(мм)
S
(см)
12 8.08 В 4 10 км пыль {туман} 4/4 480 м
[Cu med, cong]
+26.8 +25.7 94 +40 +41 очень
душно
1019.7 1020.0 +24.5 +35.5
15 8.08 В 6 10 км пыль {туман} 5/5 600 м
[Cu med, cong]
+32.1 +24.8 65 +45 +49 опасность
перегрева
1019.9 1020.0
18 8.08 В 3 10 км пыль {туман} 5/5 660 м
[Cu med, cong]
+34.8 +22.0 47 +43 +51 опасность
перегрева
1017.8 1018.0 +24.5 +35.2
00 9.08 СВ 2 10 км пыль {туман} 3/3 540 м
[Cu med, cong]
+27.3 +22.5 75 +36 +36 очень
душно
1018.0 1018.0 +24.5 +35.2
12 9.08 штиль 0 12 км пыль {туман} 3/3 540 м
[Cu med, cong]
+25.3 +24.3 94 +35 +39 очень
душно
1018.6 1019.0 +22.0 +35.2
15 9.08 ЮВ 3 12 км пыль {туман} 5/5 600 м
[Cu med, cong]
+32.4 +23.5 59 +43 +51 опасность
перегрева
1019.2 1019.0
18 9.08 Ю 6 14 км пыль {туман} 5/5 720 м
[Cu med, cong]
+31.1 +22.7 61 +41 +45 опасность
перегрева
1017.5 1018.0 +22.0 +34.2
21 9.08 В 2 14 км пыль {туман} 8/6 600 м
[Cb cap Cs]
+30.6 +22.7 63 +40 +42 очень
душно
1016.0 1016.0
00 10.08 штиль 0 14 км пыль {туман} 6/4 540 м
[Cb cap Cs]
+27.2 +22.7 76 +36 +36 очень
душно
1017.5 1018.0 +22.0 +34.2
03 10.08 штиль 0 14 км пыль {туман} 3/3 540 м
[Cu med, cong]
+23.6 +22.7 95 +31 +31 очень
душно
1019.2 1019.0
12 10.08 штиль 0 16 км {туман} 6/3 540 м
[Cu med, cong Ci fib]
+25.9 +23.7 88 +35 +39 очень
душно
1017.8 1018.0 +22.6 +34.2
15 10.08 ЮВ 4 16 км 6/4 600 м
[Cu med, cong Cs]
+31.4 +22.9 61 +42 +49 опасность
перегрева
1018.0 1018.0
18 10.08 ЮВ 3 16 км 6/4 660 м
[Cu med, cong Cs]
+32.4 +21.6 53 +41 +50 опасность
перегрева
1017.0 1017.0 +22.6 +34.0
03 11.08 штиль 0 16 км 6/3 540 м
[Cu med, cong Cs]
+23.7 +23.6 99 +32 +32 очень
душно
1018.5 1019.0
12 11.08 штиль 0 16 км 6/3 540 м
[Cu med, cong Ci]
+24.4 +23.8 96 +33 +36 очень
душно
1018.5 1019.0 +22.0 +34.2
15 11.08 ЮВ 4 16 км 8/5 600 м
[Cu med, cong Cs]
+30.0 +22.5 64 +39 +45 очень
душно
1019.6 1020.0
18 11.08 В 6 16 км 8/5 600 м
[Cb cap Cs]
+33.6 +22.7 53 +43 +47 опасность
перегрева
1018.0 1018.0 +22.0 +35.0
21 11.08 В 6 16 км 8/5 600 м
[Cb cap Cs]
+32.0 +21.8 55 +41 +41 опасность
перегрева
1017.0 1017.0
00 12.08 В 4 16 км 5/3 600 м
[Cu med, cong Ci]
+27.6 +23.3 77 +37 +37 очень
душно
1018.0 1018.0 +22.0 +35.0
03 12.08 штиль 0 16 км 3/3 540 м
[Cu med, cong]
+24.8 +23.7 94 +34 +34 очень
душно
1019.6 1020.0
15 12.08 ЮВ 4 16 км 5/5 660 м
[Cu med, cong]
+30.4 +24.6 71 +43 +49 опасность
перегрева
1019.6 1020.0
18 12.08 С 4 6000 м дождь {гроза} 9/8 540 м
[Cb cap As op Cs]
+25.4 +22.5 84 +33 +35 очень
душно
1018.3 1018.0 +23.6 +34.0 3
21 12.08 В 3 7000 м слабый дождь 9/8 540 м
[Cb cap As op Cs]
+29.2 +26.0 83 +44 +45 опасность
перегрева
1017.8 1018.0 3
00 13.08 В 3 7000 м слабый дождь 9/8 540 м
[Cb cap As op Cs]
+29.2 +26.0 83 +44 +44 опасность
перегрева
1017.8 1018.0 3
03 13.08 штиль 0 16 км 5/3 480 м
[Cu med, cong Cs]
+22.5 +22.4 99 +30 +30 очень
душно
1019.2 1019.0
12 13.08 штиль 0 16 км 3/3 480 м
[Cu med, cong]
+24.2 +23.4 95 +32 +36 очень
душно
1017.4 1017.0 +21.2 +34.0 0.8
15 13.08 В 6 16 км 8/5 600 м
[Cu Sc Ac und]
+30.1 +24.4 72 +42 +45 опасность
перегрева
1017.8 1018.0
18 13.08 В 5 16 км {ливн. осадки} 6/6 660 м
[Cu med, cong Ac und]
+32.8 +22.1 53 +41 +46 опасность
перегрева
1016.2 1016.0 +21.2 +34.0 0.3
21 13.08 В 7 8000 м осадки на расстоянии 8/8 600 м
[Cu Sc Ac und]
+31.2 +22.5 60 +41 +41 опасность
перегрева
1014.6 1015.0
00 14.08 штиль 0 16 км {дождь} 6/5 480 м
[Cb cap Ac As]
+24.2 +23.4 95 +32 +32 очень
душно
1015.8 1016.0 +21.2 +34.0 1
03 14.08 штиль 0 16 км в посл. час дождь 6/5 480 м
[Cb cap Ac As]
+22.9 +22.8 99 +31 +31 очень
душно
1017.0 1017.0 0.0
12 14.08 штиль 0 16 км 6/3 300 м
[Cu med, cong Ac As Cs]
+24.2 +23.9 98 +33 +36 очень
душно
1016.0 1016.0 +22.5 +34.0 0.4
15 14.08 СВ 3 16 км 8/5 600 м
[Cu med, cong Ac trans Cs]
+30.7 +23.9 67 +42 +48 опасность
перегрева
1016.6 1017.0
18 14.08 ЮВ 7 16 км 8/5 660 м
[Cu med, cong Ac trans Cs]
+32.6 +22.2 54 +41 +43 опасность
перегрева
1015.8 1016.0 +22.5 +34.0
21 14.08 СВ 3 16 км 8/5 600 м
[Cb cap Ac trans Cs]
+31.1 +21.7 57 +39 +41 очень
душно
1014.7 1015.0
00 15.08 СВ 2 16 км 9/5 540 м
[Cb cap Ac trans Cs]
+25.3 +23.5 90 +34 +34 очень
душно
1015.7 1016.0 +22.5 +34.0
03 15.08 В 3 16 км 6/4 540 м
[Cu med, cong Cs]
+23.7 +23.1 96 +31 +31 очень
душно
1017.0 1017.0

 

Местоположение метеостанции La Romana Int Airport (Доминиканская Республика): широта 18.45 долгота -68.92 высота над уровнем моря 94 м.

В архиве по умолчанию представлена погода в La Romana Int Airport за последнюю неделю. Архивные данные за месяц целиком и за предыдущие месяцы, начиная с января 2011 года, Вы можете получить, выбрав интересующий диапазон дат из раскрывающегося списка и нажав кнопку "Ввод!".


*Определитесь, кто Вы:
робот инопланетянин человек

Внимание! Время в таблицах - всемирное. Для получения местного времени необходимо прибавить поправку, которая в La Romana Int Airport равна -4 ч.

Смотрите также архив погоды в соседних городах и на ближайших метеорологических станциях:

Погода в Punta Cana (Доминиканская Республика) (61 км)
Погода в Las Americas (Доминиканская Республика) (78 км)
Погода в Sabana De La Mar (Доминиканская Республика) (82 км)
Погода в Santo Domingo (Доминиканская Республика) (101 км)
Погода в Santiago (Доминиканская Республика) (218 км)
Погода в Puerto Plata (Доминиканская Республика) (224 км)
Погода в Barahona (Доминиканская Республика) (232 км)
Погода в Charlotte Amalie St. Thomas (Виргинские Острова) (418 км)
Погода в Punta de Maisi (Куба) (584 км)
Погода в Juliana Airport (Нидерландские Антилы) (616 км)

Пояснения к столбцам:

Ветер - указаны скорость ветра в м/с - средняя за 10 мин, порывы в срок и между сроками (в фигурных скобках) и направление, откуда дует ветер: С - северный, СВ - северо-восточный, В - восточный, ЮВ - юго-восточный, Ю - южный, ЮЗ - юго-западный, З - западный, СЗ - северо-западный.
Видимость - горизонтальная дальность видимости в метрах или километрах. При видимости от 1 до 10 км при отсутствии осадков обычно наблюдается дымка, при ухудшении видимости до 1 км и менее - туман. В сухую погоду видимость может ухудшаться дымом, пылью или мглою.
Явления - указаны атмосферные явления, наблюдавшиеся в срок или в последний час перед сроком; фигурными скобками обозначены явления, наблюдавшиеся между сроками (за 1-3 часа до срока); квадратными скобками обозначены град или гололедные отложения с указанием их диаметра в мм.
Облачность - указаны через наклонную черту общая и нижняя облачность в баллах и высота нижней границы облаков в метрах; квадратными скобками обозначены формы облаков: Ci - перистые, Cs - перисто-слоистые, Cc - перисто-кучевые, Ac - высококучевые, As - высокослоистые, Sc - слоисто-кучевые, Ns - слоисто-дождевые, Cu - кучевые, Cb - кучево-дождевые. Подробнее классификацию облаков см. в Атласе облаков (PDF).
T - Температура воздуха - температура, измеренная на высоте 2 м над землей.
Td - Температура точки росы - температура, при понижении до которой содержащийся в воздухе водяной пар достигнет насыщения.
f - Относительная влажность воздуха - влажноcть воздуха, измеренная на высоте 2 м над землей.
Te - Эффективная температура - температура, которую ощущает одетый по сезону человек в тени. Характеристика душности погоды. При расчете учитывается влияние влажности воздуха и скорости ветра на теплоощущения человека.
Tes - Эффективная температура на солнце - температура, которую ощущает человек, с поправкой на солнечный нагрев. Характеристика знойности погоды. Зависит от высоты солнца над горизонтом, облачности и скорости ветра. Ночью, в пасмурную погоду, а также при ветре 12 м/с и более поправка равна нулю.
P - Атмосферное давление - приведенное к уровню моря атмосферное давление.
Po - Атмосферное давление - измеренное на уровне метеостанции атмосферное давление.
Tmin - Минимальная температура - минимум температуры воздуха на высоте 2 м над землей.
Tmax - Максимальная температура - максимум температуры воздуха на высоте 2 м над землей.
R - Количество осадков - Количество выпавших осадков за период времени, мм. При наведении курсора мыши на число - период времени, за который выпало указанное количество осадков.
R24 - Количество осадков - Количество выпавших осадков за 24 часа, мм.
S - Снежный покров - Высота снежного покрова, см. При наведении курсора мыши на число - состояние снежного покрова и степень покрытия местности в баллах.